ELECTRON R/B (44826 NORAD) Tracking and Keplerian Element Data

This shows tracking and keplerian element data for the satellite.

Feedback or suggestion? Click here.




ElementValue
Catalog44826
NameELECTRON R/B
Epoch Orbit179
Epoch Day351.57657472
Epoch Year2019
RAAN216.3966
Inclination96.9816
Eccentricity0.0034031
Argument of Perigee184.2532
Mean Anonmoly175.8728
Mean Motion16.3684288
Decay Rate0.07148205
L11 44826U 19084C 19351.57657472 .07148205 21014-5 46798-3 0 9995
L22 44826 96.9816 216.3966 0034031 184.2532 175.8728 16.36842880 1795

Live tracking and technical data element details for ELECTRON R/B (NORAD 44826). ELECTRON R/B can be tracked NOW for your location showing map with azimuth and elevation plus other details from your city location.

Track the satellite on the map from your city or location and see movement details for azimuth, elevation, latitude, longitude, range, height, and movement on the map or in text.







IsCatalogInMostPopularTable: catalog: 44826, numindb: 7
Update: records affected: 1



GetName: 44826 ELECTRON R/B

Hit Count: updated at: Mon, 20 Jan 2020 04:53:13 GMT